World > North America > United States > Texas

Voss, Texas Regional Weather

Lat: 31.62N, Lon: 99.56W
Wx Zone: TXZ139Web Search
Voss Weather Warning NWS WEATHER ALERT FOR THE VOSS, TX AREA - Issued: 417 AM CDT Fri Apr 16 2021 Voss Weather Warning  

Pass this page to a friend. Tell them to point their camera at the QR Code near the bottom of this page.

Feedback


°F Click to change Voss hourly weather to Imperial units.Click to change Voss hourly weather to Metric units. °C
Voss Weather Map
UTC Time: 4/16/2021, 13:49
Your Time:

Voss, TX Regional Weather

Expires:202104161400;;641541
ASUS44 KFWD 161315
RWRTX 
NORTH TEXAS HOURLY WEATHER ROUNDUP
NATIONAL WEATHER SERVICE FORT WORTH TX
800 AM CDT FRI APR 16 2021

NOTE: "FAIR" INDICATES FEW OR NO CLOUDS BELOW 12,000 FEET WITH NO
SIGNIFICANT WEATHER AND/OR OBSTRUCTIONS TO VISIBILITY.


TXZ083>090-098>101-113>116-127>130-139>142-154-155-161400-
WESTERN NORTH TEXAS
  
CITY           SKY/WX    TMP DP  RH WIND       PRES   REMARKS
WICHITA FALLS  LGT RAIN  52  52 100 N12       29.86R                  
WF-KICKAPOO    DRIZZLE   54  53  98 N13       29.87R                  
VERNON         CLOUDY    50  50 100 N9        29.88F                  
ABILENE        LGT RAIN  56  55  97 N12       29.84R FOG              
ABILENE-DYESS  LGT RAIN  55  54  96 N10       29.84R                  
BRECKENRIDGE   DRIZZLE   57  57 100 CALM      29.83S                  
CISCO          FOG       57  57 100 CALM      29.80R VSB 1/2          
EASTLAND       FOG       57 N/A N/A NW7       29.83R VSB 1            
RANGER         CLOUDY    56  56 100 S3        29.81R FOG              
MINERAL WELLS  RAIN      57  56  96 NE7G23    29.82R VSB 1            
STEPHENVILLE   CLOUDY    58  57  94 SE6       29.83S                  
COMANCHE       CLOUDY    58  58 100 S7        29.80S FOG              
BROWNWOOD      CLOUDY    59  59 100 S8        29.80S                  
COLEMAN        FOG       58  57  97 S7        29.81R VSB 1/2          
BRADY          CLOUDY    59  59 100 SE6       29.80R FOG              
$$


SKY/WX - Weather  TMP - Temperature  DP - Dew Point  RH - Relative Humidity
WIND - Wind Direction/Speed PRES - Barometric Pressure VSB - Visibility
WCI - Wind Chill Index E13G22 Wind - East Wind 13 mph/Gusts of 22 mph